TimeCDT,TemperatureF,Dew PointF,Humidity,Sea Level PressureIn,VisibilityMPH,Wind Direction,Wind SpeedMPH,Gust SpeedMPH,PrecipitationIn,Events,Conditions,WindDirDegrees,DateUTC
12:13 AM,30.2,30.2,100,29.78,10.0,Calm,Calm,-,N/A,,Overcast,0,2013-11-02 05:13:00
12:33 AM,30.2,30.2,100,29.78,10.0,NW,3.5,-,N/A,,Overcast,320,2013-11-02 05:33:00
12:52 AM,32.0,28.4,87,29.79,10.0,Calm,Calm,-,N/A,,Overcast,0,2013-11-02 05:52:00
1:13 AM,32.0,28.4,87,29.80,10.0,Calm,Calm,-,N/A,,Overcast,0,2013-11-02 06:13:00
1:33 AM,32.0,28.4,87,29.81,10.0,Calm,Calm,-,N/A,,Overcast,0,2013-11-02 06:33:00
1:52 AM,32.0,28.4,87,29.82,10.0,Calm,Calm,-,N/A,,Overcast,0,2013-11-02 06:52:00
2:13 AM,32.0,28.4,87,29.82,10.0,Calm,Calm,-,N/A,,Overcast,0,2013-11-02 07:13:00
2:33 AM,32.0,28.4,87,29.83,10.0,Calm,Calm,-,N/A,,Overcast,0,2013-11-02 07:33:00
2:52 AM,32.0,28.4,87,29.83,10.0,Calm,Calm,-,N/A,,Overcast,0,2013-11-02 07:52:00
3:13 AM,32.0,28.4,87,29.84,10.0,Calm,Calm,-,N/A,,Overcast,0,2013-11-02 08:13:00
3:32 AM,32.0,28.4,87,29.84,10.0,Calm,Calm,-,N/A,,Overcast,0,2013-11-02 08:32:00
3:53 AM,30.2,30.2,100,29.85,10.0,Calm,Calm,-,N/A,,Overcast,0,2013-11-02 08:53:00
4:12 AM,30.2,30.2,100,29.86,10.0,Calm,Calm,-,N/A,,Overcast,0,2013-11-02 09:12:00
4:33 AM,30.2,30.2,100,29.86,10.0,Calm,Calm,-,N/A,,Overcast,0,2013-11-02 09:33:00
4:53 AM,30.2,30.2,100,29.87,10.0,Calm,Calm,-,N/A,,Overcast,0,2013-11-02 09:53:00
5:13 AM,30.2,30.2,100,29.88,10.0,Calm,Calm,-,N/A,,Overcast,0,2013-11-02 10:13:00
5:32 AM,30.2,30.2,100,29.89,10.0,Calm,Calm,-,N/A,,Overcast,0,2013-11-02 10:32:00
5:53 AM,32.0,30.2,93,29.89,10.0,Calm,Calm,-,N/A,,Overcast,0,2013-11-02 10:53:00
6:13 AM,30.2,30.2,100,29.90,10.0,Calm,Calm,-,N/A,,Overcast,0,2013-11-02 11:13:00
6:33 AM,30.2,30.2,100,29.91,10.0,Calm,Calm,-,N/A,,Overcast,0,2013-11-02 11:33:00
6:52 AM,30.2,30.2,100,29.91,10.0,Calm,Calm,-,N/A,,Overcast,0,2013-11-02 11:52:00
7:13 AM,30.2,30.2,100,29.92,10.0,Calm,Calm,-,N/A,,Overcast,0,2013-11-02 12:13:00
7:33 AM,30.2,30.2,100,29.92,10.0,Calm,Calm,-,N/A,,Overcast,0,2013-11-02 12:33:00
7:52 AM,32.0,28.4,87,29.93,10.0,Calm,Calm,-,N/A,,Overcast,0,2013-11-02 12:52:00
8:13 AM,32.0,30.2,93,29.93,10.0,Calm,Calm,-,N/A,,Overcast,0,2013-11-02 13:13:00
8:33 AM,32.0,30.2,93,29.94,10.0,Calm,Calm,-,N/A,,Overcast,0,2013-11-02 13:33:00
8:52 AM,32.0,30.2,93,29.95,10.0,Calm,Calm,-,N/A,,Overcast,0,2013-11-02 13:52:00
9:13 AM,32.0,30.2,93,29.95,10.0,Calm,Calm,-,N/A,,Overcast,0,2013-11-02 14:13:00
9:33 AM,33.8,30.2,87,29.95,10.0,Calm,Calm,-,N/A,,Overcast,0,2013-11-02 14:33:00
9:53 AM,33.8,30.2,87,29.95,10.0,NW,3.5,-,N/A,,Overcast,310,2013-11-02 14:53:00
10:13 AM,35.6,26.6,70,29.95,10.0,Calm,Calm,-,N/A,,Scattered Clouds,0,2013-11-02 15:13:00
10:33 AM,35.6,24.8,65,29.97,10.0,NW,3.5,-,N/A,,Scattered Clouds,320,2013-11-02 15:33:00
10:52 AM,35.6,24.8,65,29.97,10.0,Calm,Calm,-,N/A,,Overcast,0,2013-11-02 15:52:00
11:13 AM,37.4,24.8,60,29.98,10.0,West,4.6,-,N/A,,Overcast,280,2013-11-02 16:13:00
11:33 AM,37.4,24.8,60,29.99,10.0,WNW,5.8,-,N/A,,Overcast,290,2013-11-02 16:33:00
11:52 AM,37.4,24.8,60,29.99,10.0,Calm,Calm,-,N/A,,Mostly Cloudy,0,2013-11-02 16:52:00
12:13 PM,39.2,24.8,56,30.00,10.0,WSW,5.8,-,N/A,,Scattered Clouds,240,2013-11-02 17:13:00
12:33 PM,37.4,24.8,60,30.00,10.0,West,4.6,-,N/A,,Scattered Clouds,260,2013-11-02 17:33:00
12:52 PM,39.2,24.8,56,30.00,10.0,Calm,Calm,-,N/A,,Scattered Clouds,0,2013-11-02 17:52:00
1:13 PM,37.4,24.8,60,29.99,10.0,WSW,4.6,-,N/A,,Mostly Cloudy,250,2013-11-02 18:13:00
1:33 PM,39.2,24.8,56,29.99,10.0,WSW,5.8,-,N/A,,Mostly Cloudy,250,2013-11-02 18:33:00
1:52 PM,39.2,24.8,56,29.99,10.0,WSW,3.5,-,N/A,,Scattered Clouds,250,2013-11-02 18:52:00
2:13 PM,39.2,26.6,61,29.99,10.0,West,5.8,-,N/A,,Mostly Cloudy,260,2013-11-02 19:13:00
2:33 PM,39.2,24.8,56,30.00,10.0,WSW,3.5,-,N/A,,Overcast,240,2013-11-02 19:33:00
2:52 PM,39.2,24.8,56,30.00,10.0,WNW,4.6,-,N/A,,Overcast,290,2013-11-02 19:52:00
3:13 PM,39.2,24.8,56,30.00,10.0,West,8.1,-,N/A,,Mostly Cloudy,260,2013-11-02 20:13:00
3:33 PM,39.2,24.8,56,30.00,10.0,West,5.8,-,N/A,,Mostly Cloudy,280,2013-11-02 20:33:00
3:52 PM,39.2,24.8,56,30.00,10.0,West,5.8,-,N/A,,Mostly Cloudy,280,2013-11-02 20:52:00
4:13 PM,39.2,24.8,56,30.00,10.0,West,4.6,-,N/A,,Mostly Cloudy,260,2013-11-02 21:13:00
4:33 PM,39.2,24.8,56,30.00,10.0,WSW,6.9,-,N/A,,Mostly Cloudy,250,2013-11-02 21:33:00
4:53 PM,39.2,24.8,56,30.01,10.0,West,8.1,-,N/A,,Scattered Clouds,260,2013-11-02 21:53:00
5:13 PM,37.4,24.8,60,30.01,10.0,West,4.6,-,N/A,,Clear,270,2013-11-02 22:13:00
5:32 PM,37.4,24.8,60,30.01,10.0,West,4.6,-,N/A,,Clear,260,2013-11-02 22:32:00
5:53 PM,35.6,24.8,65,30.02,10.0,Calm,Calm,-,N/A,,Clear,0,2013-11-02 22:53:00
6:13 PM,33.8,24.8,70,30.03,10.0,Calm,Calm,-,N/A,,Clear,0,2013-11-02 23:13:00
6:32 PM,33.8,24.8,70,30.03,10.0,Calm,Calm,-,N/A,,Scattered Clouds,0,2013-11-02 23:32:00
6:53 PM,28.4,24.8,86,30.03,10.0,Calm,Calm,-,N/A,,Scattered Clouds,0,2013-11-02 23:53:00
7:13 PM,28.4,24.8,86,30.04,10.0,Calm,Calm,-,N/A,,Mostly Cloudy,0,2013-11-03 00:13:00
7:32 PM,28.4,24.8,86,30.03,10.0,Calm,Calm,-,N/A,,Overcast,0,2013-11-03 00:32:00
7:53 PM,26.6,24.8,93,30.03,10.0,Calm,Calm,-,N/A,,Scattered Clouds,0,2013-11-03 00:53:00
8:13 PM,26.6,24.8,93,30.03,10.0,Calm,Calm,-,N/A,,Clear,0,2013-11-03 01:13:00
8:32 PM,26.6,24.8,93,30.03,10.0,SE,3.5,-,N/A,,Clear,130,2013-11-03 01:32:00
8:53 PM,26.6,24.8,93,30.04,10.0,Calm,Calm,-,N/A,,Clear,0,2013-11-03 01:53:00
9:13 PM,26.6,24.8,93,30.04,10.0,Calm,Calm,-,N/A,,Clear,0,2013-11-03 02:13:00
9:32 PM,28.4,26.6,93,30.04,10.0,SSE,5.8,-,N/A,,Clear,160,2013-11-03 02:32:00
9:53 PM,30.2,26.6,86,30.04,10.0,South,5.8,-,N/A,,Clear,170,2013-11-03 02:53:00
10:13 PM,30.2,28.4,93,30.04,10.0,South,4.6,-,N/A,,Clear,170,2013-11-03 03:13:00
10:32 PM,30.2,28.4,93,30.05,10.0,South,3.5,-,N/A,,Clear,170,2013-11-03 03:32:00
10:53 PM,30.2,28.4,93,30.05,10.0,Calm,Calm,-,N/A,,Clear,0,2013-11-03 03:53:00
11:13 PM,30.2,28.4,93,30.05,10.0,Calm,Calm,-,N/A,,Clear,0,2013-11-03 04:13:00
11:32 PM,30.2,28.4,93,30.05,10.0,Calm,Calm,-,N/A,,Clear,0,2013-11-03 04:32:00
11:53 PM,28.4,28.4,100,30.05,10.0,Calm,Calm,-,N/A,,Clear,0,2013-11-03 04:53:00